Date String (YYYY-MM-DD hh:mm:ss) UTC,Instrument flags,absolute air pressure of the measurement (hPa),sample flow rate (lpm),inlet stack bypass flow (lpm),air temperature of the measurement (°C),ambient temperature measured by the external sensor (°C),aerosol sample conditioner tube jacket temperature (°C),OPC LED temperature (°C),internal box temperature (°C),relative humidity of the measurement (%),span deviation,mass concentration of particles derived from Lorenz-Mie calculation of OPC scattering (μg/m³),mass concentration of particles derived from Lorenz-Mie calculation of OPC scattering (μg/m³),mass concentration of particles derived from Lorenz-Mie calculation of OPC scattering (μg/m³)
DateTimeUTC,F1_M11,P_M11,Q1_M11,Q2_M11,T1_M11,T2_M11,T3_M11,T4_M11,T5_M11,U1_M11,ZSPAN_M11,X2_M11,X0_M11,X1_M11
2023-08-20 20:00:00,SystemResetWarning,0835.6,4.98,000.00,033.1,024.7,000.0,039.8,030.9,34.4,0002.2,0014.18,0021.35,0013.13
2023-08-20 20:01:00,SystemResetWarning,0835.6,5.01,000.00,033.0,024.4,000.0,039.8,030.8,34.7,0002.1,0014.28,0021.29,0013.16
2023-08-20 20:02:00,SystemResetWarning,0835.5,4.99,000.00,032.8,024.6,000.0,039.9,030.6,35.0,0002.0,0014.33,0021.24,0013.18
2023-08-20 20:03:00,SystemResetWarning,0835.5,5.03,000.00,032.7,025.0,000.0,039.9,030.7,35.6,0001.9,0014.35,0021.22,0013.22
2023-08-20 20:04:00,SystemResetWarning,0835.6,5.00,000.00,032.8,025.4,000.0,040.0,030.9,35.4,0001.9,0014.43,0021.01,0013.25
2023-08-20 20:05:00,SystemResetWarning,0835.5,5.01,000.00,033.0,025.9,000.0,040.0,031.2,34.7,0001.8,0014.43,0020.60,0013.27
2023-08-20 20:06:00,SystemResetWarning,0835.6,4.97,000.00,033.1,026.3,000.0,040.0,031.3,34.2,0001.7,0014.45,0021.02,0013.29
2023-08-20 20:07:00,SystemResetWarning,0835.6,5.03,000.00,033.3,026.4,000.0,040.1,031.4,33.5,0001.4,0014.51,0020.92,0013.33
2023-08-20 20:08:00,SystemResetWarning,0835.6,4.98,000.00,033.4,025.4,000.0,040.0,031.2,33.3,0001.3,0014.55,0020.59,0013.35
2023-08-20 20:09:00,SystemResetWarning,0835.7,5.00,000.00,033.3,024.6,000.0,039.9,031.0,33.4,0001.3,0014.63,0020.75,0013.39
2023-08-20 20:10:00,SystemResetWarning,0835.5,5.02,000.00,033.2,024.5,000.0,040.0,030.9,33.3,0001.3,0014.61,0020.48,0013.42
2023-08-20 20:11:00,SystemResetWarning,0835.6,5.00,000.00,033.0,024.8,000.0,040.0,030.7,33.8,0001.5,0014.66,0019.87,0013.45
2023-08-20 20:12:00,SystemResetWarning,0835.5,4.99,000.00,032.8,025.2,000.0,040.1,030.8,34.1,0001.6,0014.68,0019.48,0013.47
2023-08-20 20:13:00,SystemResetWarning,0835.5,5.01,000.00,032.7,025.7,000.0,040.1,030.9,34.2,0001.5,0014.68,0019.27,0013.50
2023-08-20 20:14:00,SystemResetWarning,0835.5,4.99,000.00,032.6,026.1,000.0,040.1,031.0,34.8,0001.7,0014.69,0019.26,0013.52
2023-08-20 20:15:00,SystemResetWarning,0835.5,5.00,000.00,032.6,025.7,000.0,040.0,031.0,35.0,0001.4,0014.67,0019.31,0013.53
2023-08-20 20:16:00,SystemResetWarning,0835.5,5.00,000.00,032.7,024.6,000.0,039.9,030.9,34.8,0001.5,0014.71,0020.10,0013.56
2023-08-20 20:17:00,SystemResetWarning,0835.4,5.01,000.00,032.7,024.4,000.0,039.8,030.9,34.4,0001.5,0014.74,0020.35,0013.60
2023-08-20 20:18:00,SystemResetWarning,0835.4,5.01,000.00,032.6,024.6,000.0,039.8,030.7,33.9,0001.5,0014.75,0020.61,0013.59
2023-08-20 20:19:00,SystemResetWarning,0835.4,4.99,000.00,032.4,025.0,000.0,039.8,030.7,33.9,0001.5,0014.80,0021.23,0013.62
2023-08-20 20:20:00,SystemResetWarning,0835.4,5.00,000.00,032.2,025.4,000.0,039.8,030.8,34.0,0001.1,0014.85,0021.30,0013.64
2023-08-20 20:21:00,SystemResetWarning,0835.5,5.00,000.00,032.2,025.9,000.0,039.8,030.9,34.2,0001.0,0014.89,0021.40,0013.65
2023-08-20 20:22:00,SystemResetWarning,0835.4,5.00,000.00,032.1,026.0,000.0,039.8,030.9,34.2,0000.8,0014.90,0022.21,0013.66
2023-08-20 20:23:00,SystemResetWarning,0835.4,4.98,000.00,032.1,025.1,000.0,039.6,030.8,33.9,0000.9,0014.88,0022.99,0013.66
2023-08-20 20:24:00,SystemResetWarning,0835.3,5.01,000.00,032.0,024.3,000.0,039.5,030.7,33.5,0001.2,0014.92,0023.13,0013.66
2023-08-20 20:25:00,SystemResetWarning,0835.3,5.01,000.00,031.9,024.4,000.0,039.4,030.5,34.1,0001.2,0014.93,0023.19,0013.65
2023-08-20 20:26:00,SystemResetWarning,0835.2,5.00,000.00,031.6,024.7,000.0,039.4,030.3,34.6,0001.4,0014.96,0023.14,0013.68
2023-08-20 20:27:00,SystemResetWarning,0835.3,4.99,000.00,031.5,025.1,000.0,039.4,030.4,35.3,0001.4,0015.00,0022.53,0013.68
2023-08-20 20:28:00,SystemResetWarning,0835.3,5.03,000.00,031.6,025.6,000.0,039.4,030.7,35.1,0001.2,0015.01,0022.16,0013.67
2023-08-20 20:29:00,SystemResetWarning,0835.3,4.96,000.00,031.7,026.0,000.0,039.4,030.9,34.8,0001.1,0015.05,0021.99,0013.69
2023-08-20 20:30:00,SystemResetWarning,0835.2,5.00,000.00,031.8,026.1,000.0,039.3,030.9,34.9,0001.0,0015.09,0021.52,0013.71
2023-08-20 20:31:00,SystemResetWarning,0835.2,4.99,000.00,031.9,025.1,000.0,039.2,030.8,34.3,0001.2,0015.07,0021.70,0013.72
2023-08-20 20:32:00,SystemResetWarning,0835.3,5.01,000.00,031.8,024.4,000.0,039.1,030.5,34.4,0001.4,0015.05,0021.90,0013.74
2023-08-20 20:33:00,SystemResetWarning,0835.3,5.01,000.00,031.7,024.5,000.0,039.1,030.4,34.4,0001.4,0014.98,0021.26,0013.72
2023-08-20 20:34:00,SystemResetWarning,0835.3,4.99,000.00,031.5,024.8,000.0,039.1,030.3,34.6,0001.2,0014.96,0020.46,0013.69
2023-08-20 20:35:00,SystemResetWarning,0835.3,4.98,000.00,031.4,025.2,000.0,039.1,030.4,35.1,0000.9,0014.93,0020.37,0013.68
2023-08-20 20:36:00,SystemResetWarning,0835.3,5.03,000.00,031.5,025.7,000.0,039.1,030.6,35.0,0000.9,0014.90,0020.88,0013.66
2023-08-20 20:37:00,SystemResetWarning,0835.3,4.97,000.00,031.6,026.1,000.0,039.2,030.8,34.6,0001.1,0014.86,0021.06,0013.61
2023-08-20 20:38:00,SystemResetWarning,0835.3,5.00,000.00,031.7,026.2,000.0,039.1,030.9,34.2,0001.1,0014.76,0021.05,0013.59
2023-08-20 20:39:00,SystemResetWarning,0835.3,4.99,000.00,031.8,025.2,000.0,039.0,030.7,34.2,0001.2,0014.72,0020.92,0013.59
2023-08-20 20:40:00,SystemResetWarning,0835.2,5.01,000.00,031.7,024.4,000.0,038.9,030.5,33.9,0001.4,0014.68,0021.47,0013.58
2023-08-20 20:41:00,SystemResetWarning,0835.2,5.01,000.00,031.6,024.5,000.0,038.9,030.3,34.1,0001.6,0014.60,0021.93,0013.55
2023-08-20 20:42:00,SystemResetWarning,0835.2,4.99,000.00,031.4,024.8,000.0,039.0,030.3,34.6,0001.5,0014.55,0023.15,0013.51
2023-08-20 20:43:00,SystemResetWarning,0835.1,5.00,000.00,031.3,025.2,000.0,039.0,030.4,35.0,0001.7,0014.49,0023.45,0013.48
2023-08-20 20:44:00,SystemResetWarning,0835.0,5.00,000.00,031.3,025.7,000.0,039.0,030.5,35.1,0001.6,0014.49,0023.54,0013.47
2023-08-20 20:45:00,SystemResetWarning,0835.0,5.01,000.00,031.4,026.1,000.0,039.0,030.7,35.3,0001.8,0014.53,0023.47,0013.49
2023-08-20 20:46:00,SystemResetWarning,0835.1,4.99,000.00,031.6,026.2,000.0,039.0,030.9,34.5,0002.0,0014.50,0023.59,0013.50
2023-08-20 20:47:00,SystemResetWarning,0835.0,4.99,000.00,031.7,025.1,000.0,038.9,030.7,33.9,0002.0,0014.50,0023.44,0013.51
2023-08-20 20:48:00,SystemResetWarning,0834.9,5.01,000.00,031.8,024.4,000.0,038.8,030.5,34.1,0002.0,0014.55,0022.96,0013.55
2023-08-20 20:49:00,SystemResetWarning,0834.9,5.01,000.00,031.7,024.5,000.0,038.8,030.3,34.4,0002.1,0014.57,0022.91,0013.52
2023-08-20 20:50:00,SystemResetWarning,0834.9,4.99,000.00,031.5,024.8,000.0,038.9,030.2,34.5,0002.2,0014.56,0022.72,0013.46
2023-08-20 20:51:00,SystemResetWarning,0835.0,4.98,000.00,031.4,025.2,000.0,038.9,030.3,35.0,0002.3,0014.59,0022.24,0013.42
2023-08-20 20:52:00,SystemResetWarning,0835.1,5.04,000.00,031.4,025.7,000.0,039.0,030.5,34.9,0002.2,0014.59,0021.82,0013.36
2023-08-20 20:53:00,SystemResetWarning,0834.9,4.94,000.00,031.5,026.1,000.0,039.0,030.7,34.9,0002.4,0014.52,0021.22,0013.32
2023-08-20 20:54:00,SystemResetWarning,0835.2,5.05,000.00,031.6,026.4,000.0,039.0,030.8,34.8,0002.2,0014.45,0020.23,0013.25
2023-08-20 20:55:00,SystemResetWarning,0834.9,4.96,000.00,031.7,026.0,000.0,038.9,030.8,34.1,0002.2,0014.41,0020.32,0013.20
2023-08-20 20:56:00,SystemResetWarning,0834.9,5.03,000.00,031.7,024.8,000.0,038.9,030.6,33.8,0002.1,0014.36,0020.26,0013.16
2023-08-20 20:57:00,SystemResetWarning,0835.1,4.99,000.00,031.7,024.5,000.0,038.8,030.5,34.1,0001.9,0014.30,0019.82,0013.09
2023-08-20 20:58:00,SystemResetWarning,0835.2,4.99,000.00,031.5,024.7,000.0,038.8,030.3,34.2,0002.0,0014.28,0019.67,0013.03
2023-08-20 20:59:00,SystemResetWarning,0835.3,5.01,000.00,031.4,025.1,000.0,038.9,030.3,34.3,0001.7,0014.21,0019.92,0012.96
